Flag for Germany Weather past 2 weeks in Wilhelmshaven, Lower Saxony, Germany

Now
46 °F

Scattered clouds.


Feels Like: 41 °F
Forecast: 43 / 48 °F
Wind: 13 mph from South

Location: Wittmundhaven

Current Time: Mar 28, 2015 at 12:23:55 PM

Latest Report: Mar 28, 2015 at 11:20 AM


Visibility: N/A

Pressure: 30.01 "Hg

Humidity: 66%

Dew point: 36 °F

Location of WilhelmshavenLocation

Historic Weather in Wilhelmshaven — Graph

°F

Wilhelmshaven temperature yesterday

Maximum temperature yesterday: 45 °F (at 12:20 PM)
Minimum temperature yesterday: 39 °F (at 12:20 AM)
Average temperature yesterday: 42 °F

Past Weeks' High & Low Weather Summary

 TemperatureHumidityPressure
High57 °F (Mar 17, 3:20 PM)100% (Mar 18, 5:20 AM)30.48 "Hg (Mar 18, 5:20 AM)
Low30 °F (Mar 23, 4:20 AM)31% (Mar 19, 3:20 PM)29.65 "Hg (Mar 26, 10:20 PM)
Average41 °F79%30.13 "Hg
* Reported Mar 13 10:20 AM — Mar 28 10:20 AM, Wilhelmshaven, Weather by CustomWeather, © 2015

Note: Actual official high and low records may vary slightly from our data, if they occured in-between our weather recording intervals... More about our weather records

Advertising

Wilhelmshaven weather history for previous 24 hours

 ConditionsComfort  
Time TempWeatherWind HumidityBarometerVisibility
10:20 AM
Sat, Mar 28
43 °FScattered clouds.12 mph81%30.04 "Hg5 mi
9:49 AM41 °FFog.10 mph93%30.07 "Hg2 mi
9:20 AM37 °FFog.12 mph100%30.07 "Hg1 mi
8:20 AM37 °FFog.7 mph93%30.09 "Hg0 mi
7:20 AM36 °FFog.5 mph100%30.12 "Hg0 mi
6:20 AM34 °FFog.5 mph93%30.12 "Hg0 mi
5:59 AM34 °FFog.5 mph100%30.12 "Hg0 mi
5:55 AM34 °FFog.5 mph100%30.12 "Hg1 mi
5:20 AM36 °FPassing clouds.5 mph93%30.12 "HgN/A
4:20 AM37 °FPartly cloudy.5 mph93%30.15 "HgN/A
3:20 AM39 °FPartly cloudy.6 mph93%30.15 "Hg6 mi
2:20 AM41 °FPartly cloudy.6 mph87%30.15 "Hg6 mi
1:20 AM41 °FPassing clouds.7 mph93%30.15 "Hg6 mi
12:20 AM43 °FPassing clouds.6 mph87%30.15 "HgN/A
11:20 PM
Fri, Mar 27
43 °FPassing clouds.5 mph87%30.12 "HgN/A
10:20 PM41 °FPassing clouds.5 mph93%30.12 "HgN/A
9:20 PM41 °FPassing clouds.7 mph87%30.12 "Hg6 mi
8:20 PM41 °FPassing clouds.7 mph87%30.09 "Hg6 mi
7:20 PM43 °FPartly cloudy.12 mph81%30.09 "Hg5 mi
6:20 PM43 °FPartly sunny.12 mph81%30.04 "Hg5 mi
5:20 PM43 °FFog.15 mph87%30.01 "Hg2 mi
4:20 PM43 °FFog.15 mph87%29.98 "Hg3 mi
3:20 PM45 °FPartly sunny.16 mph81%29.95 "HgN/A
2:20 PM45 °FPartly sunny.15 mph81%29.92 "HgN/A
1:20 PM45 °FPartly sunny.15 mph81%29.89 "HgN/A
12:20 PM45 °FBroken clouds.12 mph87%29.83 "HgN/A
Weather by CustomWeather, © 2015

See weather overviewHow to use our weather pages